Weather in Kalamata

Greece     37°02′25″N   22°06′42″E
temp.,
°C
wind,
m/s
gust,
m/s
humid.,
%
clouds,
%
prec.,
mm/h
press.,
hPa
HPBL,
m
28 november, sun
sun2823:00+16w36771 5.7 1008324
02:00+14nw35820 5.8 1010269
05:00+14nw247612 0.1 1011195
08:00+15w147929 0.3 1012365
11:00+17se237242 0.1 1012648
14:00+18sse567559 0.1 1010826
17:00+18sse688350 0.1 1010588
20:00+19se7117858 0.3 1008525
29 november, mon
mon2923:00+19sse698390 0.0 1006291
02:00+21ssw61276100 0.2 1004396
05:00+17w61182100 0.4 1005744
08:00+17wsw61169100 0.9 10061077
11:00+17wsw101572100 0.8 10081413
14:00+16w10156434 2.1 10081741
17:00+16wsw916561 0.6 10091909
20:00+16wsw8145481 1.1 10101728
30 november, tue
tue3023:00+15sw11166164 0.6 10091558
02:00+14wsw14217385 2.6 10081806
05:00+14w11175855 1.4 10081710
08:00+14w11155729 2.8 10101666
11:00+13wnw101566100 1.8 10131700
14:00+13wnw10156321 3.1 10141667
17:00+13nw8135843 0.5 10161599
20:00+12nw712595 0.6 10181337
1 december, wed
wed123:00+11nnw612595 0.0 10191313
02:00+10nnw5116012 0.0 10201110
05:00+10n610654 0.0 1021662
08:00+9nnw59711 0.0 1021455
11:00+13nnw68590 0.0 10211114
14:00+14nw68560 0.0 10201189
17:00+12nnw57660 0.0 1020530
20:00+10nnw45750 0.0 1020289
2 december, thu
thu223:00+10n45751 0.0 1020217
02:00+10n44726 0.0 1019218
05:00+11n336821 0.0 1017274
08:00+12n336922 0.0 1018276
11:00+15nne125756 0.0 1018731
14:00+16n03534 0.0 1016793
17:00+15ssw126481 0.0 1015506
20:00+15ese227080 0.0 1016321